GEFSMA_500_meanwind_276.txt.gz
Wind_Speed
7 8 9 10 10 10 11 11 11 11 11 11 11 11 12 12 12 12 12 12 12 13 12 12 11 12 12 12 12 13 13 13 14 14 15 15 15 15 15 16 15 15 15
7 8 9 9 9 9 9 10 10 10 9 9 10 11 12 12 12 12 12 13 13 13 13 13 12 12 12 12 13 13 13 13 13 14 14 14 14 14 15 15 15 15 15
8 8 8 9 9 9 9 8 9 10 10 10 11 11 12 12 12 13 13 13 13 13 13 13 13 13 13 13 13 13 13 13 13 13 13 14 14 14 14 15 14 14 14
7 7 8 8 9 9 9 9 9 9 10 11 11 11 12 12 12 13 13 13 13 13 13 13 13 13 14 14 13 13 13 13 13 13 13 13 14 14 14 14 14 14 14
7 7 8 8 9 9 9 9 9 9 10 10 11 11 12 12 12 13 13 13 13 13 13 13 13 13 13 14 13 13 14 14 14 14 14 14 14 14 14 14 14 13 14
6 6 7 8 8 9 10 10 10 11 11 11 11 11 12 13 13 13 14 14 14 14 14 14 14 14 13 14 14 14 14 14 15 15 15 15 15 15 14 14 14 14 14
6 7 8 8 8 9 9 10 11 11 11 11 12 12 12 13 13 14 14 14 14 14 14 14 14 13 13 14 14 15 15 14 14 14 14 15 15 15 16 15 15 15 15
8 8 9 9 8 9 9 10 10 10 11 11 11 12 13 13 14 14 14 15 15 15 14 14 14 14 14 14 14 15 15 14 14 14 14 15 15 15 15 15 15 15 15
9 9 9 9 9 9 9 10 10 10 11 11 11 12 13 14 15 15 15 15 16 16 15 15 15 15 15 15 15 15 15 15 15 15 15 14 15 15 15 15 15 14 15
9 9 10 10 10 10 10 11 11 12 12 13 13 13 14 15 15 15 15 16 16 17 16 15 16 15 16 15 15 15 15 15 15 15 14 15 14 14 14 14 15 15 15
10 10 11 11 11 11 11 12 12 13 13 14 14 14 15 15 15 16 16 17 17 18 18 17 16 16 16 16 16 15 15 16 16 16 15 15 15 15 14 15 15 16 16
11 11 12 12 12 12 13 13 13 14 15 15 16 16 16 16 16 16 16 17 18 18 18 18 18 17 17 16 16 16 16 16 16 16 16 16 16 16 16 16 16 16 16
12 12 12 13 13 13 13 14 14 15 16 16 17 17 17 17 17 17 17 17 18 18 18 18 18 18 18 17 17 17 17 16 16 16 16 16 17 17 17 17 18 18 18
13 13 13 14 13 13 14 14 15 15 16 16 17 17 17 18 18 18 18 18 17 17 18 19 19 19 18 17 17 17 17 17 17 17 17 17 18 18 18 19 19 19 19
14 14 14 14 14 14 15 15 15 15 15 16 16 17 17 17 17 18 18 17 18 18 18 18 18 18 18 18 18 18 18 18 18 18 18 19 19 19 19 19 20 20 20
14 14 14 14 15 15 15 16 16 16 16 17 17 17 17 17 17 18 18 18 18 18 18 17 17 18 18 19 18 18 19 19 19 19 20 20 20 20 20 21 21 22 22
14 14 15 15 16 16 16 16 16 16 16 17 17 17 17 17 17 17 18 18 18 18 18 18 18 18 18 19 19 20 20 20 20 20 20 20 20 21 21 22 22 22 22
15 15 15 15 16 16 16 17 17 17 17 17 17 17 17 17 17 17 18 18 18 19 18 18 19 19 19 20 20 21 21 21 21 21 21 21 21 21 22 22 22 22 23
17 16 16 16 16 17 17 17 17 17 18 18 17 17 17 17 17 18 19 19 19 19 19 19 19 19 20 21 21 21 21 22 22 22 22 22 21 21 22 23 23 23 23
17 17 17 17 17 17 17 17 17 17 17 17 17 17 17 18 18 19 19 19 19 20 20 20 21 20 20 20 21 21 21 22 22 22 23 23 23 22 23 23 23 24 24
18 18 18 18 17 17 17 17 17 17 18 18 18 18 18 19 19 19 19 19 19 20 20 21 21 21 21 21 21 22 22 22 22 23 23 23 23 23 24 24 24 25 25
18 18 18 18 18 18 18 17 17 17 18 18 18 18 18 18 19 19 20 20 20 21 22 22 22 22 22 21 21 22 22 22 22 23 24 24 24 24 25 25 26 26 26
19 18 18 18 18 18 18 18 18 18 18 19 19 19 19 19 20 20 20 21 21 22 23 22 21 21 22 22 22 22 22 23 23 24 25 25 25 26 26 26 26 27 27
19 19 19 19 19 18 19 19 19 20 20 20 19 19 20 20 20 20 20 21 22 22 22 22 22 23 23 23 23 23 24 24 24 25 25 25 25 26 27 27 27 28 28
20 20 20 20 20 20 20 20 21 21 20 20 20 20 20 20 21 21 21 21 22 22 23 23 23 24 24 24 24 24 24 25 25 25 27 27 27 28 28 28 28 29 30
21 21 21 21 21 21 21 21 22 22 21 21 21 21 22 22 22 23 23 23 23 23 24 24 24 25 25 25 26 25 26 27 27 27 28 29 29 30 29 29 29 30 30

GEFSMA_500_meanwind_282.txt.gz
Wind_Speed
9 10 11 12 12 12 12 12 12 12 13 13 13 13 14 13 13 13 13 13 12 13 14 14 14 14 14 14 14 13 13 13 13 14 14 14 15 15 15 16 16 16 16
9 10 10 11 11 11 11 12 12 12 12 12 12 13 13 14 14 14 14 14 14 14 14 14 14 14 14 14 14 14 13 13 13 13 14 14 14 14 14 15 15 16 16
8 8 8 10 11 11 11 11 11 12 12 12 13 13 14 14 14 15 15 15 15 15 15 15 15 15 15 14 14 14 14 14 14 14 14 15 15 15 15 15 15 15 15
8 8 8 9 10 10 11 11 12 12 12 13 13 13 13 14 15 15 16 16 16 15 16 16 15 15 15 15 15 15 16 16 15 15 15 15 14 14 15 15 16 16 16
8 9 9 9 9 10 10 11 12 12 13 13 12 13 13 14 15 15 15 15 15 15 16 16 16 16 16 16 16 16 16 16 16 16 17 17 17 16 15 15 15 15 15
7 8 9 9 9 9 10 11 11 12 12 13 13 13 13 14 14 15 15 16 16 16 16 16 16 16 17 17 17 17 16 16 16 16 17 17 17 17 17 16 15 15 15
7 8 9 9 9 10 10 11 12 11 12 12 13 13 13 13 14 14 15 16 16 17 17 17 17 17 16 17 17 17 17 17 16 16 16 17 17 16 16 16 16 16 16
8 8 9 10 10 10 10 11 11 12 12 12 12 13 13 13 14 15 15 16 17 17 17 18 18 17 17 17 17 16 16 17 16 16 16 16 16 16 16 16 16 16 16
9 9 10 10 10 10 11 11 12 12 12 13 13 13 14 14 15 15 16 17 17 18 18 18 17 17 17 16 16 16 16 16 16 16 16 16 16 16 16 16 15 15 15
10 11 11 12 11 12 12 12 12 13 13 13 14 14 14 15 15 16 16 17 18 18 18 17 18 18 17 17 17 16 16 16 16 16 16 16 16 16 15 15 15 15 15
10 11 12 12 12 13 13 13 13 13 14 14 15 15 16 16 16 17 17 17 17 17 17 17 17 18 17 17 16 16 17 17 16 16 15 15 15 15 16 16 15 15 15
11 12 12 12 13 13 14 14 14 15 15 15 16 16 17 17 17 18 18 17 17 18 18 17 18 18 18 17 17 17 17 17 17 17 16 16 17 17 16 16 16 16 16
12 12 13 13 13 14 14 14 15 15 15 15 16 17 17 17 18 18 18 18 18 18 18 18 18 18 18 18 18 18 18 18 18 17 18 17 18 17 17 17 17 18 18
13 13 13 13 13 14 14 15 15 15 15 15 16 16 17 17 17 17 17 18 18 18 18 18 18 18 18 18 18 19 18 18 18 18 18 18 18 18 18 18 18 18 18
13 13 13 13 13 14 14 14 15 15 15 15 16 16 17 17 17 17 17 17 18 18 18 18 19 19 19 19 19 19 19 19 18 18 18 18 18 19 19 18 18 18 19
13 13 13 14 14 14 15 15 15 15 16 16 15 16 16 17 17 17 18 17 18 18 18 19 19 20 20 20 20 19 19 19 20 20 19 19 19 19 19 19 18 18 18
15 15 14 15 15 15 16 16 17 17 17 17 17 17 17 17 17 17 17 17 18 18 18 18 18 19 19 20 20 20 20 20 21 21 21 20 20 20 19 19 19 19 19
16 16 16 15 15 15 16 16 17 17 18 18 17 17 18 18 18 18 18 18 18 18 19 19 19 19 19 20 21 21 21 21 21 21 20 20 20 20 20 20 20 19 19
17 17 17 17 17 17 16 16 17 17 18 19 19 19 18 18 18 18 18 18 18 18 19 19 19 20 20 20 21 21 21 21 21 21 21 20 20 20 20 20 20 20 20
18 19 18 18 18 18 18 18 18 18 18 19 19 19 19 18 18 18 18 18 19 19 19 20 20 20 21 21 21 21 21 21 21 21 21 21 21 21 21 21 21 21 21
19 19 19 19 19 19 19 19 18 18 18 18 19 19 19 19 18 18 18 19 19 20 20 20 21 21 21 22 21 21 21 21 22 22 22 22 22 22 22 22 22 22 22
20 20 19 19 20 20 20 19 19 19 18 18 18 19 19 18 18 19 19 19 20 20 21 21 21 22 22 22 22 22 22 22 23 23 23 23 23 23 23 23 23 23 23
20 20 19 19 20 20 20 20 20 19 19 19 19 19 19 19 19 19 20 21 21 21 22 22 22 22 23 23 23 23 23 23 23 24 24 24 24 24 24 25 25 25 25
20 20 20 20 20 21 21 21 21 20 20 20 20 20 20 20 19 20 20 21 21 22 22 23 23 23 23 23 23 24 24 24 24 25 26 26 26 26 26 27 27 27 27
20 20 21 21 21 21 22 22 22 22 22 22 22 21 21 21 21 21 21 22 22 22 23 23 24 24 24 23 23 24 25 26 26 26 27 27 28 28 29 29 29 29 29
22 22 22 22 22 22 23 23 23 23 23 23 23 23 23 23 23 24 24 24 24 24 24 24 24 24 24 24 25 25 26 26 27 27 28 29 29 30 30 30 31 31 31

GEFSMA_500_meanwind_288.txt.gz
Wind_Speed
8 8 10 10 11 12 12 12 12 12 13 13 13 13 13 13 13 13 13 13 13 13 13 12 13 14 14 14 14 14 13 14 14 15 14 14 14 14 14 14 14 14 15
8 9 9 10 10 11 12 12 12 13 13 13 13 13 13 13 13 13 14 14 14 14 13 13 13 13 14 14 14 15 15 15 15 15 14 14 14 15 15 15 15 14 14
8 9 10 10 11 11 12 12 12 13 13 13 13 12 12 13 13 14 14 14 15 15 15 14 14 15 15 15 16 16 16 16 15 15 14 15 15 15 14 14 14 14 15
9 9 10 10 10 11 12 12 12 12 12 12 12 12 12 13 13 14 15 15 15 15 16 16 16 15 16 16 16 16 16 15 15 15 15 15 15 15 15 15 14 15 15
9 9 9 10 10 10 11 11 12 12 12 12 12 12 12 13 13 14 15 15 15 16 16 16 16 17 16 16 15 16 16 16 16 16 16 15 16 16 16 15 15 15 16
8 9 9 10 10 10 10 11 11 12 12 11 11 12 13 13 13 13 14 14 15 16 16 16 16 16 16 16 16 16 16 17 16 16 16 16 16 16 16 15 16 16 16
9 9 9 10 9 10 10 11 11 11 11 12 12 12 12 13 13 13 14 15 15 16 16 15 15 15 15 16 16 16 16 16 16 17 16 17 16 16 16 17 17 17 17
9 10 10 10 10 10 11 11 11 10 11 12 13 13 13 13 13 14 15 15 16 16 16 17 17 16 17 16 16 16 16 16 17 17 17 17 17 16 17 17 17 17 17
10 10 11 11 11 11 12 12 11 12 12 13 13 13 13 13 13 14 14 15 16 16 16 17 17 17 18 18 17 17 17 17 17 17 17 17 17 17 17 16 16 16 16
10 11 12 12 12 12 12 13 13 13 13 13 13 13 14 14 14 14 15 15 16 16 16 17 17 17 18 18 17 17 17 17 17 17 17 17 16 16 17 17 16 15 15
11 12 12 12 12 13 13 13 14 14 14 14 14 14 15 14 15 15 15 16 16 17 17 18 18 18 17 17 17 17 16 16 17 16 16 16 16 17 17 17 17 16 15
12 12 12 12 13 13 13 13 14 14 14 15 15 15 16 16 16 16 16 17 17 18 18 18 17 17 17 17 17 16 16 16 16 15 15 15 16 16 17 17 17 17 15
12 12 13 14 14 14 14 14 14 14 14 15 15 16 16 16 16 17 17 18 18 18 18 18 17 17 17 17 16 16 17 16 16 16 15 15 16 16 16 16 16 16 15
13 13 14 14 14 14 14 14 14 14 14 15 16 16 17 17 17 17 18 18 18 17 17 17 17 17 17 17 16 16 16 16 16 16 16 15 16 16 16 16 15 16 15
14 15 15 14 14 14 14 14 14 14 15 15 15 16 17 17 17 17 18 18 18 17 16 17 17 17 17 17 17 17 17 16 17 17 17 17 17 16 16 16 16 16 16
15 15 15 15 15 15 15 15 15 15 15 16 16 16 16 17 17 17 17 18 18 18 18 18 18 18 18 17 16 17 17 17 18 18 18 17 17 17 17 17 17 18 17
15 15 16 16 16 16 16 16 17 17 17 17 17 17 17 17 17 18 18 18 18 18 18 18 18 18 18 18 18 18 18 18 18 19 19 19 18 18 18 18 18 18 17
17 17 17 17 18 18 18 18 18 18 18 18 18 18 18 18 18 18 19 19 19 18 19 19 19 19 19 19 18 19 19 19 20 20 19 19 19 19 19 19 18 18 18
19 19 19 19 19 19 20 19 19 19 19 19 19 19 19 19 19 19 20 20 20 19 19 19 19 18 19 19 19 19 20 20 21 21 21 20 20 20 20 19 19 19 19
20 20 20 20 20 21 21 20 20 20 21 20 20 20 20 20 20 20 20 21 21 21 20 19 19 19 19 19 20 20 20 21 22 22 22 21 21 20 20 20 20 20 20
20 20 21 21 22 21 21 21 21 21 21 21 21 21 21 21 21 21 20 21 21 21 21 20 20 20 20 21 21 21 21 22 22 22 23 23 22 22 21 21 21 21 21
21 21 21 22 22 22 22 22 21 21 21 21 21 21 22 22 21 21 20 20 21 21 21 21 21 21 21 22 22 22 22 22 22 23 23 23 23 23 22 22 22 22 22
22 22 22 22 22 22 22 22 21 21 21 21 21 21 21 22 22 22 22 22 22 22 22 22 22 22 23 23 23 23 23 23 23 24 24 23 24 23 23 23 23 23 23
22 22 22 22 22 22 22 22 22 22 22 22 21 21 21 22 23 23 23 23 23 23 23 23 23 23 24 24 24 24 24 24 24 25 25 24 24 24 24 24 25 25 25
23 23 22 23 22 22 22 23 23 23 23 22 22 22 22 22 23 24 24 24 23 23 24 24 24 24 25 25 25 25 25 25 25 25 26 26 25 25 25 25 26 27 27
24 23 23 23 23 23 23 23 24 24 24 24 23 24 24 24 24 24 25 25 24 24 25 26 25 25 26 26 26 26 26 26 26 26 26 27 27 26 26 26 27 28 29

GEFSMA_500_meanwind_294.txt.gz
Wind_Speed
8 9 9 10 10 11 11 11 12 12 13 13 13 13 14 14 14 13 13 14 13 13 13 12 12 12 12 12 12 12 12 12 13 13 13 13 14 14 14 14 14 15 15
8 8 9 9 10 10 10 11 12 12 13 13 13 13 13 14 14 13 12 13 14 14 13 13 13 13 12 13 13 13 13 13 13 13 14 14 13 14 14 14 14 15 16
7 8 8 9 9 9 10 11 12 12 12 12 12 13 13 13 13 14 13 13 13 14 14 14 14 13 13 13 14 13 13 13 13 14 14 14 14 14 14 14 14 15 15
7 7 8 8 8 9 10 10 11 11 12 12 12 12 12 13 13 13 13 13 13 13 14 14 15 15 14 14 14 14 13 14 14 14 15 15 14 14 14 15 15 16 16
7 7 7 8 8 9 9 10 11 11 11 12 12 12 12 12 12 12 13 13 13 14 14 15 15 15 15 15 15 14 13 13 14 14 15 15 14 14 14 15 16 16 16
7 7 7 7 8 8 9 10 11 11 11 11 11 11 12 12 12 12 12 13 14 14 14 14 15 15 15 15 15 14 14 14 14 15 15 15 14 15 15 15 15 16 16
8 7 7 8 8 8 9 10 10 10 10 11 12 12 12 12 12 12 12 13 13 14 14 14 15 15 15 14 14 15 15 15 15 15 15 15 15 15 16 16 16 15 16
8 9 8 9 9 9 9 9 10 10 11 11 11 12 12 13 13 12 13 13 13 13 13 14 14 14 14 14 14 15 15 15 16 16 16 16 16 16 16 16 17 17 17
10 9 10 10 10 10 10 10 10 10 11 12 12 12 12 13 13 13 13 13 13 13 13 14 14 14 14 14 15 15 15 15 15 16 16 17 16 16 16 17 17 17 17
10 10 10 10 10 10 11 11 11 11 11 12 12 13 13 13 13 13 13 13 13 14 14 14 14 14 15 15 14 15 15 16 16 16 16 17 17 17 17 17 17 17 16
11 11 11 11 11 11 11 11 11 12 12 12 13 13 13 13 13 13 14 14 14 14 14 15 15 15 15 15 15 15 16 16 16 16 16 17 17 17 17 17 17 17 17
11 11 11 12 12 12 11 12 12 13 13 13 14 14 14 15 15 14 15 15 15 15 15 15 15 16 16 16 16 16 17 17 17 17 16 16 16 17 17 16 17 17 16
11 11 11 12 12 12 12 13 13 13 14 14 15 15 15 15 16 16 16 16 16 16 17 17 17 16 16 16 16 16 16 17 17 17 17 16 16 16 16 16 16 16 16
12 12 12 12 12 12 13 14 14 15 15 15 15 15 15 15 16 16 16 17 17 17 17 18 18 17 17 16 16 16 15 16 16 17 17 17 17 16 16 15 16 16 16
12 13 13 13 13 13 14 15 16 16 16 16 16 16 16 16 16 16 16 17 17 17 17 18 18 18 17 17 17 16 16 16 16 16 16 17 17 17 16 16 16 16 16
14 14 14 14 14 15 15 16 16 16 17 17 17 17 17 17 18 18 18 17 17 18 18 17 18 18 18 18 18 17 17 17 17 17 17 17 17 17 17 17 17 17 17
15 15 15 15 16 16 17 17 17 17 18 18 18 18 19 19 19 19 19 19 19 19 18 18 19 19 19 19 18 18 18 18 18 18 18 18 18 17 17 17 18 18 18
17 17 16 16 17 17 17 17 18 18 19 19 19 19 20 20 20 19 20 20 20 19 19 19 19 19 19 19 20 19 19 19 19 19 19 19 19 18 18 18 18 18 18
18 18 18 18 18 18 18 18 19 19 20 20 20 20 20 20 20 20 20 21 21 20 20 20 20 20 20 20 20 20 20 20 19 19 20 19 20 19 19 19 19 19 19
19 19 18 19 19 19 19 19 20 20 20 21 21 21 21 21 21 21 21 21 22 22 22 21 21 21 21 21 21 21 21 21 20 20 20 20 20 20 21 21 20 20 20
20 20 20 20 20 20 20 20 20 20 21 21 21 22 22 22 22 22 22 22 23 23 23 23 23 22 22 22 22 22 22 22 22 22 22 21 21 21 21 21 21 22 22
21 21 21 21 21 21 21 21 22 22 22 22 22 22 23 23 23 23 23 23 23 23 24 23 23 23 22 22 22 23 23 22 22 23 23 23 22 23 23 23 23 23 23
22 22 22 22 23 22 22 22 22 22 23 23 23 23 23 24 24 24 24 24 24 24 24 24 23 23 24 23 23 23 24 24 24 24 24 24 24 24 24 25 25 25 24
24 24 24 24 24 23 23 23 23 23 23 23 24 24 24 24 24 24 24 24 25 24 24 25 24 24 24 24 24 24 24 25 25 24 25 25 25 26 26 26 26 26 27
25 25 25 25 24 24 24 24 24 24 24 24 24 25 25 24 24 24 24 24 25 25 25 25 25 25 25 25 25 26 26 26 25 25 26 26 26 26 27 27 28 28 28
26 26 26 26 26 26 25 25 25 25 25 25 25 26 26 26 26 25 25 25 26 27 27 26 26 26 26 26 26 26 26 26 26 26 27 27 27 27 27 28 28 29 29

GEFSMA_500_meanwind_300.txt.gz
Wind_Speed
9 9 9 9 9 10 10 11 11 11 12 13 13 14 13 13 14 13 13 13 13 13 14 13 13 12 13 13 14 14 14 14 14 13 14 14 14 14 13 14 14 13 13
9 9 9 9 10 10 10 11 11 11 12 12 13 13 13 13 13 13 14 14 14 13 14 14 14 13 14 14 14 14 15 15 15 15 15 14 14 14 14 14 14 14 14
9 9 10 10 10 10 11 11 11 11 11 12 13 13 12 13 13 13 13 14 13 13 14 14 15 15 15 15 15 15 15 15 16 15 15 15 15 15 15 15 14 14 14
8 8 9 9 9 9 10 11 11 11 11 11 12 12 12 12 13 13 13 13 14 14 14 14 15 15 16 16 16 16 15 15 15 15 15 15 15 15 15 15 15 15 15
7 8 8 8 8 8 9 9 10 10 11 12 12 11 12 12 13 13 13 13 14 14 15 15 15 15 15 16 16 16 16 15 15 15 15 15 15 15 16 16 15 15 15
8 8 9 8 8 9 9 9 9 10 11 11 11 11 12 12 12 13 13 13 13 14 14 15 15 15 15 16 16 16 16 16 16 16 16 16 16 16 16 16 16 16 16
9 9 10 9 9 9 9 10 10 10 10 11 11 12 12 12 12 12 12 13 13 14 14 14 14 15 15 16 16 15 16 16 16 16 16 15 15 16 16 16 16 16 16
9 10 10 10 10 10 10 10 10 10 10 11 11 12 12 13 13 13 13 13 14 14 14 13 14 15 15 15 15 15 15 16 16 16 16 16 16 16 16 16 16 16 16
9 10 10 10 10 11 11 11 10 10 11 12 12 12 12 13 13 13 13 13 14 14 14 14 14 14 14 15 15 15 15 16 16 16 16 16 16 16 17 16 16 16 16
10 11 11 11 11 11 12 12 12 12 12 12 12 13 13 13 13 14 14 15 15 15 15 15 15 14 15 15 16 16 16 16 16 16 16 16 16 16 16 17 17 16 16
11 11 11 12 12 12 13 13 13 13 13 13 13 13 14 13 14 14 15 15 16 16 16 16 16 16 16 16 16 16 17 17 17 17 17 17 17 17 17 17 17 16 16
12 12 12 13 13 13 14 14 14 14 14 14 13 14 14 14 14 14 15 15 16 17 17 17 17 17 17 17 17 17 17 17 17 17 17 18 17 17 17 17 17 17 17
13 13 13 13 14 14 14 14 14 15 15 15 14 14 15 15 15 15 15 15 16 16 17 18 18 17 17 18 18 18 18 18 18 18 18 18 17 17 17 17 18 18 17
14 14 13 14 14 15 15 15 15 15 15 15 15 16 16 16 16 16 16 17 17 17 18 18 18 18 18 17 18 18 18 18 19 18 18 18 18 18 18 18 18 18 18
15 15 15 15 15 15 16 15 16 16 16 16 16 17 17 18 18 18 18 19 18 18 18 18 18 19 18 18 18 18 18 18 19 19 19 19 19 18 18 18 17 18 18
16 16 16 16 16 16 16 16 17 17 18 18 18 18 19 19 19 20 20 20 20 19 19 19 19 19 19 19 19 19 18 18 19 18 19 19 19 18 18 18 17 17 17
17 17 17 17 17 18 18 18 19 19 19 20 19 19 20 20 21 21 21 21 21 21 20 19 19 20 20 20 20 20 19 19 19 19 19 19 19 19 18 18 17 17 17
18 18 18 18 18 18 19 20 20 21 21 21 21 21 21 21 22 22 22 22 22 21 21 20 20 20 20 20 20 20 20 21 21 20 20 20 19 19 19 18 18 18 17
19 20 20 19 20 20 20 21 21 21 21 22 22 22 22 22 22 22 22 23 23 22 22 21 21 20 20 20 20 20 20 21 21 21 21 21 21 20 20 20 20 19 19
21 21 21 21 21 21 21 21 22 22 22 22 22 23 23 23 23 23 23 23 23 23 23 22 22 21 21 21 21 21 22 22 22 22 22 22 21 21 21 21 20 20 20
22 22 22 22 22 22 22 23 23 23 23 23 23 24 24 24 24 24 24 24 24 23 23 23 23 22 23 23 23 23 23 23 23 22 22 22 22 22 21 21 21 21 21
22 22 22 23 23 23 24 24 24 24 24 25 25 25 25 25 25 25 25 25 24 24 24 24 24 24 24 24 24 25 24 24 23 23 23 23 24 23 23 23 23 22 22
23 24 24 24 25 25 25 25 25 26 26 26 26 26 26 26 26 26 26 26 26 26 26 26 26 26 25 25 25 25 25 25 25 25 25 25 25 25 24 24 24 24 23
25 25 25 25 26 26 26 27 27 27 27 27 27 28 28 28 28 27 27 28 28 28 27 28 28 27 27 27 26 26 26 26 26 25 25 25 25 26 25 25 25 25 25
26 26 26 27 27 27 27 28 28 28 28 28 29 29 29 29 29 29 29 29 29 29 29 28 28 28 28 28 27 27 27 27 26 26 26 26 26 26 26 26 25 26 26
28 27 28 28 28 28 28 29 29 30 29 29 29 30 30 30 31 30 30 29 29 29 29 28 28 28 28 28 28 27 27 27 27 27 27 27 27 27 27 27 27 27 27